カタログに戻る

STARLINK-31049

運用中通信VLEO
NORAD 58543·PAYLOAD·🇺🇸 United States

打ち上げ Dec 8, 2023 から Vandenberg Space Force Base

Loading…

次のパス (今後24時間)

TLE

最新Source: CelesTrak SupGP

元期: Sep 14, 2026, 20:56 UTC

1 58543C 23192N   26257.87270833  .00046741  00000+0  13812-2 0  2577
2 58543  53.1570 259.9274 0001273  98.0658  45.3945 15.34361792    17

AllMySatでSTARLINK-31049をリアルタイム追跡

Download on the App Store